EN

Hourly Weather Kyslytsya

Today, 26 July, Monday

Time Temperature Precipitation Wind Pressure Humidity
00:00 +22°C° 0 mm 1 mps 763 mmHg 53%
01:00 +22°C° 0 mm 1 mps 763 mmHg 53%
02:00 +21°C° 0 mm 1 mps 763 mmHg 53%
03:00 +21°C° 0 mm 1 mps 763 mmHg 54%
04:00 +21°C° 0 mm 1 mps 763 mmHg 54%
05:00 +21°C° 0 mm 1 mps 763 mmHg 54%
06:00 +23°C° 0 mm 1 mps 763 mmHg 49%
07:00 +26°C° 0 mm 2 mps 763 mmHg 44%
08:00 +28°C° 0 mm 2 mps 763 mmHg 39%
09:00 +30°C° 0 mm 2 mps 763 mmHg 36%
10:00 +31°C° 0 mm 2 mps 763 mmHg 32%
11:00 +34°C° 0 mm 2 mps 763 mmHg 29%
12:00 +34°C° 0 mm 2 mps 763 mmHg 28%
13:00 +35°C° 0 mm 3 mps 763 mmHg 26%
14:00 +36°C° 0 mm 3 mps 762 mmHg 25%
15:00 +35°C° 0 mm 3 mps 762 mmHg 26%
16:00 +35°C° 0 mm 3 mps 762 mmHg 27%
17:00 +34°C° 0 mm 3 mps 762 mmHg 29%
18:00 +31°C° 0 mm 3 mps 762 mmHg 36%
19:00 +28°C° 0 mm 3 mps 762 mmHg 44%
20:00 +26°C° 0 mm 3 mps 763 mmHg 52%
21:00 +25°C° 0 mm 2 mps 763 mmHg 54%
22:00 +25°C° 0 mm 2 mps 763 mmHg 55%
23:00 +24°C° 0 mm 2 mps 763 mmHg 56%

Tomorrow, 27 July, Tuesday

Time Temperature Precipitation Wind Pressure Humidity
00:00 +24°C° 0 mm 1 mps 763 mmHg 56%
01:00 +24°C° 0 mm 1 mps 763 mmHg 56%
02:00 +23°C° 0 mm 1 mps 763 mmHg 56%
03:00 +23°C° 0 mm 1 mps 763 mmHg 56%
04:00 +21°C° 0 mm 0 mps 763 mmHg 57%
05:00 +21°C° 0 mm 0 mps 763 mmHg 57%
06:00 +23°C° 0 mm 0 mps 763 mmHg 51%
07:00 +27°C° 0 mm 1 mps 763 mmHg 45%
08:00 +29°C° 0 mm 1 mps 763 mmHg 39%
09:00 +31°C° 0 mm 2 mps 763 mmHg 34%
10:00 +34°C° 0 mm 2 mps 763 mmHg 30%
11:00 +35°C° 0 mm 3 mps 763 mmHg 26%
12:00 +36°C° 0 mm 3 mps 763 mmHg 26%
13:00 +36°C° 0 mm 3 mps 763 mmHg 25%
14:00 +37°C° 0 mm 4 mps 762 mmHg 24%
15:00 +37°C° 0 mm 4 mps 762 mmHg 26%
16:00 +36°C° 0 mm 4 mps 762 mmHg 27%
17:00 +36°C° 0 mm 5 mps 762 mmHg 28%
18:00 +33°C° 0 mm 4 mps 762 mmHg 35%
19:00 +30°C° 0 mm 4 mps 762 mmHg 42%
20:00 +27°C° 0 mm 3 mps 762 mmHg 50%
21:00 +26°C° 0 mm 3 mps 762 mmHg 53%
22:00 +26°C° 0 mm 3 mps 763 mmHg 56%
23:00 +25°C° 0 mm 3 mps 763 mmHg 59%

Day after tomorrow, 28 July, Wednesday

Time Temperature Precipitation Wind Pressure Humidity
00:00 +25°C° 0 mm 3 mps 762 mmHg 60%
01:00 +25°C° 0 mm 3 mps 762 mmHg 60%
02:00 +25°C° 0 mm 2 mps 762 mmHg 61%
03:00 +25°C° 0 mm 2 mps 762 mmHg 62%
04:00 +24°C° 0 mm 2 mps 762 mmHg 63%
05:00 +24°C° 0 mm 2 mps 762 mmHg 63%
06:00 +26°C° 0 mm 3 mps 762 mmHg 56%
07:00 +29°C° 0 mm 4 mps 762 mmHg 49%
08:00 +32°C° 0 mm 4 mps 762 mmHg 41%
09:00 +34°C° 0 mm 5 mps 762 mmHg 37%
10:00 +35°C° 0 mm 5 mps 762 mmHg 34%
11:00 +37°C° 0 mm 5 mps 761 mmHg 30%
12:00 +37°C° 0 mm 5 mps 761 mmHg 29%
13:00 +39°C° 0 mm 5 mps 761 mmHg 29%
14:00 +39°C° 0 mm 5 mps 760 mmHg 28%
15:00 +37°C° 0 mm 5 mps 760 mmHg 31%
16:00 +36°C° 0 mm 6 mps 760 mmHg 33%
17:00 +36°C° 0 mm 6 mps 760 mmHg 36%
18:00 +33°C° 0 mm 6 mps 760 mmHg 43%
19:00 +30°C° 0 mm 6 mps 760 mmHg 51%
20:00 +28°C° 0 mm 6 mps 760 mmHg 59%
21:00 +28°C° 0 mm 5 mps 760 mmHg 61%
22:00 +27°C° 0 mm 5 mps 760 mmHg 62%
23:00 +27°C° 0 mm 5 mps 760 mmHg 64%

29 July, Thursday

Time Temperature Precipitation Wind Pressure Humidity
00:00 +26°C° 0 mm 4 mps 760 mmHg 66%
01:00 +26°C° 0 mm 4 mps 760 mmHg 68%
02:00 +25°C° 0 mm 3 mps 760 mmHg 70%
03:00 +25°C° 0 mm 3 mps 760 mmHg 70%
04:00 +24°C° 0 mm 2 mps 760 mmHg 71%
05:00 +24°C° 0 mm 2 mps 760 mmHg 71%
06:00 +26°C° 0 mm 2 mps 760 mmHg 63%
07:00 +28°C° 0 mm 2 mps 760 mmHg 55%
08:00 +30°C° 0 mm 3 mps 760 mmHg 47%
09:00 +33°C° 0 mm 3 mps 759 mmHg 43%
10:00 +34°C° 0 mm 3 mps 759 mmHg 39%
11:00 +36°C° 0 mm 3 mps 759 mmHg 34%
12:00 +37°C° 0 mm 3 mps 759 mmHg 32%
13:00 +38°C° 0 mm 3 mps 758 mmHg 31%
14:00 +39°C° 0 mm 3 mps 758 mmHg 29%
15:00 +38°C° 0 mm 4 mps 758 mmHg 31%
16:00 +37°C° 0 mm 5 mps 758 mmHg 32%
17:00 +38°C° 0 mm 6 mps 758 mmHg 34%
18:00 +34°C° 0.1 mm 5 mps 758 mmHg 42%
19:00 +30°C° 0.1 mm 5 mps 758 mmHg 51%
20:00 +28°C° 0.1 mm 4 mps 759 mmHg 59%
21:00 +27°C° 0 mm 4 mps 758 mmHg 62%
22:00 +26°C° 0 mm 3 mps 758 mmHg 65%
23:00 +26°C° 0 mm 3 mps 758 mmHg 68%

30 July, Friday

Time Temperature Precipitation Wind Pressure Humidity
00:00 +25°C° 0 mm 2 mps 758 mmHg 68%
01:00 +25°C° 0 mm 2 mps 758 mmHg 68%
02:00 +24°C° 0 mm 1 mps 758 mmHg 68%
03:00 +24°C° 0 mm 1 mps 758 mmHg 68%
04:00 +24°C° 0 mm 1 mps 758 mmHg 69%
05:00 +24°C° 0 mm 1 mps 758 mmHg 70%
06:00 +26°C° 0 mm 1 mps 758 mmHg 63%
07:00 +28°C° 0 mm 1 mps 758 mmHg 55%
08:00 +30°C° 0 mm 1 mps 758 mmHg 48%
09:00 +31°C° 0 mm 1 mps 758 mmHg 44%
10:00 +33°C° 0 mm 1 mps 758 mmHg 39%
11:00 +36°C° 0 mm 2 mps 758 mmHg 35%
12:00 +37°C° 0 mm 2 mps 757 mmHg 33%
13:00 +37°C° 0 mm 2 mps 757 mmHg 31%
14:00 +38°C° 0 mm 2 mps 757 mmHg 29%
15:00 +38°C° 0 mm 3 mps 757 mmHg 30%
16:00 +38°C° 0 mm 3 mps 756 mmHg 31%
17:00 +37°C° 0 mm 3 mps 756 mmHg 32%
18:00 +35°C° 0 mm 3 mps 756 mmHg 40%
19:00 +32°C° 0 mm 4 mps 757 mmHg 49%
20:00 +28°C° 0 mm 4 mps 757 mmHg 57%
21:00 +28°C° 0 mm 3 mps 757 mmHg 60%
22:00 +27°C° 0 mm 3 mps 757 mmHg 62%
23:00 +26°C° 0 mm 3 mps 757 mmHg 64%

31 July, Saturday

Time Temperature Precipitation Wind Pressure Humidity
00:00 +26°C° 0 mm 3 mps 757 mmHg 63%
01:00 +26°C° 0 mm 3 mps 757 mmHg 61%
02:00 +26°C° 0 mm 2 mps 756 mmHg 59%
03:00 +25°C° 0 mm 2 mps 756 mmHg 58%
04:00 +25°C° 0 mm 2 mps 756 mmHg 57%
05:00 +25°C° 0 mm 2 mps 756 mmHg 56%
06:00 +27°C° 0 mm 2 mps 756 mmHg 49%
07:00 +30°C° 0 mm 3 mps 756 mmHg 43%
08:00 +33°C° 0 mm 3 mps 756 mmHg 36%
09:00 +35°C° 0 mm 3 mps 756 mmHg 33%
10:00 +37°C° 0 mm 4 mps 756 mmHg 30%
11:00 +40°C° 0 mm 5 mps 756 mmHg 27%
12:00 +40°C° 0 mm 5 mps 756 mmHg 27%
13:00 +40°C° 0 mm 5 mps 755 mmHg 27%
14:00 +41°C° 0 mm 5 mps 755 mmHg 27%
15:00 +39°C° 0 mm 6 mps 755 mmHg 32%
16:00 +36°C° 0 mm 6 mps 756 mmHg 36%
17:00 +35°C° 0 mm 6 mps 756 mmHg 41%
18:00 +33°C° 0 mm 5 mps 756 mmHg 48%
19:00 +30°C° 0 mm 4 mps 756 mmHg 54%
20:00 +28°C° 0 mm 3 mps 756 mmHg 61%
21:00 +28°C° 0 mm 3 mps 757 mmHg 62%
22:00 +27°C° 0 mm 3 mps 757 mmHg 63%
23:00 +27°C° 0 mm 2 mps 758 mmHg 65%
Show more